Change the Weather History Date:

Thursday, October 18, 2012

  Actual Average Record
Temperature  
Mean Temperature 56 °F -  
Max Temperature 68 °F 54 °F - ()
Min Temperature 45 °F 40 °F - ()
Degree Days  
Heating Degree Days 8    
Growing Degree Days 6 (Base 50)    
Moisture  
Dew Point 49 °F    
Average Humidity 74    
Maximum Humidity 94    
Minimum Humidity 46    
Precipitation  
Precipitation 0.00 in 0.06 in - ()
Sea Level Pressure  
Sea Level Pressure 30.20 in    
Wind  
Wind Speed 5 mph ()    
Max Wind Speed 10 mph    
Max Gust Speed -    
Visibility 19.0 miles    
Events      
T = Trace of Precipitation, MM = Missing Value Source: Averaged Metar Reports

Daily Weather History Graph

Daily Weather History Graph

Search for Another Location

Airport or City:

Trip Planner

Search our weather history database for the weather conditions in past years. The results will help you decide how hot, cold, wet, or windy it might be!

Date:

Astronomy

Oct. 18, 2012 Rise Set
Actual Time 7:08 AM CEST 5:55 PM CEST
Civil Twilight 6:37 AM CEST 6:25 PM CEST
Nautical Twilight 6:03 AM CEST 7:00 PM CEST
Astronomical Twilight 5:28 AM CEST 7:34 PM CEST
Moon 10:41 AM CEST 7:59 PM CEST
Length of Visible Light 11h 47m
Length of Day
10h 47m
Waxing Crescent, 12% of the Moon is Illuminated
Oct 18
Waxing Crescent
Oct 22
First Quarter
Oct 29
Full
Nov 7
Last Quarter
Nov 13
New

Hourly Weather History & Observations

Time (CEST) Temp. Windchill Dew Point Humidity Pressure Visibility Wind Dir Wind Speed Gust Speed Precip Events Conditions
12:45 AM 51.8 °F - 46.4 °F 82% 30.21 in - SE 2.3 mph - N/A   Clear
1:45 AM 50.0 °F - 46.4 °F 87% 30.21 in - Calm Calm - N/A   Clear
2:00 AM 51 °F - 46 °F 75% 30.23 in 37 mi Calm Calm - -   Partly Cloudy
2:45 AM 48.2 °F - 44.6 °F 87% 30.21 in - ESE 5.8 mph - N/A   Clear
3:45 AM 48.2 °F - 44.6 °F 87% 30.21 in - East 5.8 mph - N/A   Clear
4:45 AM 46.4 °F 43.5 °F 44.6 °F 93% 30.21 in - East 5.8 mph - N/A   Clear
5:45 AM 46.4 °F 43.5 °F 42.8 °F 87% 30.21 in - ENE 5.8 mph - N/A   Clear
6:15 AM 46.4 °F 44.3 °F 42.8 °F 87% 30.21 in - ENE 4.6 mph - N/A   Clear
6:45 AM 46.4 °F 42.9 °F 44.6 °F 93% 30.21 in - ENE 6.9 mph - N/A   Clear
7:00 AM - - - N/A% - - East 6.9 mph - N/A   Clear
7:15 AM 46.4 °F 42.9 °F 44.6 °F 93% 30.21 in - East 6.9 mph - N/A   Clear
7:45 AM 48.2 °F - 44.6 °F 87% 30.21 in - East 6.9 mph - N/A   Clear
8:00 AM 48 °F - 45 °F 87% 30.22 in 37 mi East 6.7 mph - -   Partly Cloudy
8:15 AM 48.2 °F - 46.4 °F 93% 30.21 in - East 6.9 mph - N/A   Clear
8:45 AM 50.0 °F - 48.2 °F 94% 30.21 in - East 6.9 mph - N/A   Clear
9:15 AM 53.6 °F - 48.2 °F 82% 30.21 in - East 8.1 mph - N/A   Clear
9:45 AM 55.4 °F - 50.0 °F 82% 30.24 in - East 6.9 mph - N/A   Clear
10:00 AM - - - N/A% - - SE 8.1 mph - N/A   Clear
10:15 AM 57.2 °F - 50.0 °F 77% 30.24 in - East 8.1 mph - N/A   Clear
10:45 AM 59.0 °F - 51.8 °F 77% 30.24 in - ESE 6.9 mph - N/A   Clear
11:15 AM 60.8 °F - 51.8 °F 72% 30.24 in - ESE 6.9 mph - N/A   Clear
11:45 AM 62.6 °F - 53.6 °F 72% 30.24 in - ESE 6.9 mph - N/A   Clear
12:15 PM 64.4 °F - 51.8 °F 64% 30.21 in - SE 8.1 mph - N/A   Clear
12:45 PM 64.4 °F - 53.6 °F 68% 30.21 in - ESE 8.1 mph - N/A   Clear
1:00 PM - - - N/A% - - ESE 8.1 mph - N/A   Clear
1:15 PM 66.2 °F - 51.8 °F 60% 30.21 in - SE 9.2 mph - N/A   Clear
1:45 PM 68.0 °F - 51.8 °F 56% 30.18 in - SE 9.2 mph - N/A   Clear
2:00 PM 67 °F - 51 °F 46% 30.18 in 19 mi SE 8.9 mph - -   Partly Cloudy
2:15 PM 68.0 °F - 53.6 °F 60% 30.18 in - SE 9.2 mph - N/A   Clear
2:45 PM 68.0 °F - 50.0 °F 52% 30.18 in - SE 10.4 mph - N/A   Clear
3:15 PM 68.0 °F - 51.8 °F 56% 30.18 in - SE 9.2 mph - N/A   Clear
3:45 PM 68.0 °F - 51.8 °F 56% 30.15 in - SSE 10.4 mph - N/A   Clear
4:00 PM - - - N/A% - - SE 8.1 mph - N/A   Clear
4:15 PM 68.0 °F - 53.6 °F 60% 30.15 in - SE 9.2 mph - N/A   Clear
4:45 PM 64.4 °F - 53.6 °F 68% 30.15 in - SE 6.9 mph - N/A   Clear
5:15 PM 64.4 °F - 53.6 °F 68% 30.15 in - SE 6.9 mph - N/A   Clear
5:45 PM 60.8 °F - 51.8 °F 72% 30.15 in - SE 5.8 mph - N/A   Clear
6:15 PM 62.6 °F - 51.8 °F 68% 30.15 in - SE 3.5 mph - N/A   Clear
6:45 PM 60.8 °F - 51.8 °F 72% 30.18 in - SSE 4.6 mph - N/A   Clear
7:15 PM 60.8 °F - 51.8 °F 72% 30.18 in - SSE 4.6 mph - N/A   Clear
7:45 PM 60.8 °F - 50.0 °F 68% 30.18 in - SSE 4.6 mph - N/A   Clear
8:00 PM 60 °F - 51 °F 63% 30.17 in 19 mi SSE 4.5 mph - -   Partly Cloudy
8:15 PM 60.8 °F - 50.0 °F 68% 30.18 in - SSE 4.6 mph - N/A   Clear
8:45 PM 59.0 °F - 50.0 °F 72% 30.15 in - SSE 3.5 mph - N/A   Clear
9:15 PM 57.2 °F - 50.0 °F 77% 30.18 in - South 2.3 mph - N/A   Clear
9:45 PM 57.2 °F - 50.0 °F 77% 30.18 in - SE 1.2 mph - N/A   Clear
11:45 PM 53.6 °F - 48.2 °F 82% 30.18 in - ESE 4.6 mph - N/A   Clear